Vancouver, WA

7:06 PM PST on February 19, 2017 (GMT -0800)
Pearson

Weather History for KVUO - March, 2014

Change the Weather History Date:

Monday, March 17, 2014

  Actual Average Record
Temperature  
Mean Temperature 46 °F 48 °F  
Max Temperature 51 °F 57 °F 77 °F (1947)
Min Temperature 40 °F 40 °F 20 °F (1906)
Degree Days  
Heating Degree Days 19    
Month to date heating degree days 276  
Since 1 July heating degree days 3739  
Cooling Degree Days 0    
Month to date cooling degree days 0  
Year to date cooling degree days 0  
Moisture  
Dew Point 34 °F    
Average Humidity 64    
Maximum Humidity 82    
Minimum Humidity 46    
Precipitation  
Precipitation 0.02 in 0.12 in 0.97 in (1975)
Month to date precipitation 3.97 2.01  
Year to date precipitation 10.86 11.54  
Sea Level Pressure  
Sea Level Pressure 30.31 in    
Wind  
Wind Speed 7 mph (WNW)    
Max Wind Speed 18 mph    
Max Gust Speed 27 mph    
Visibility 10 miles    
Events Rain    
T = Trace of Precipitation, MM = Missing Value Source: NWS Daily Summary

Daily Weather History Graph

Daily Weather History Graph

Search for Another Location

Airport or City:

Trip Planner

Search our weather history database for the weather conditions in past years. The results will help you decide how hot, cold, wet, or windy it might be!

Date:

Astronomy

Mar. 17, 2014 Rise Set
Actual Time 7:19 AM PDT 7:19 PM PDT
Civil Twilight 6:49 AM PDT 7:48 PM PDT
Nautical Twilight 6:15 AM PDT 8:23 PM PDT
Astronomical Twilight 5:39 AM PDT 8:59 PM PDT
Moon 8:47 PM PDT (3/17) 7:33 AM PDT (3/17)
Length of Visible Light 12h 59m
Length of Day
12h 00m
Full, 99% of the Moon is Illuminated
Mar 17
Full
Mar 23
Last Quarter
Mar 30
New
Apr 7
First Quarter
Apr 15
Full

Hourly Weather History & Observations

Time (PDT) Temp. Windchill Dew Point Humidity Pressure Visibility Wind Dir Wind Speed Gust Speed Precip Events Conditions
12:53 AM 42.1 °F 39.2 °F 37.0 °F 82% 30.11 in 10.0 mi WSW 4.6 mph - 0.00 in   Overcast
1:53 AM 43.0 °F 39.5 °F 37.0 °F 80% 30.14 in 10.0 mi West 5.8 mph - N/A   Overcast
2:53 AM 43.0 °F 38.2 °F 37.0 °F 80% 30.17 in 10.0 mi West 8.1 mph - 0.00 in Rain Light Rain
3:10 AM 43.0 °F - 37.0 °F 80% 30.17 in 10.0 mi Calm Calm - 0.00 in   Overcast
3:53 AM 42.1 °F 38.4 °F 36.0 °F 79% 30.19 in 10.0 mi WNW 5.8 mph - 0.00 in   Mostly Cloudy
4:53 AM 42.1 °F - 36.0 °F 79% 30.21 in 10.0 mi Calm Calm - N/A   Scattered Clouds
5:53 AM 42.1 °F - 36.0 °F 79% 30.25 in 10.0 mi Calm Calm - N/A   Overcast
6:53 AM 42.1 °F 36.6 °F 33.1 °F 70% 30.27 in 10.0 mi West 9.2 mph - N/A   Clear
7:53 AM 42.1 °F 37.7 °F 34.0 °F 73% 30.31 in 10.0 mi WNW 6.9 mph - N/A   Mostly Cloudy
8:53 AM 44.1 °F 40.1 °F 34.0 °F 68% 30.34 in 10.0 mi West 6.9 mph - N/A   Mostly Cloudy
9:53 AM 45.0 °F 39.7 °F 35.1 °F 68% 30.35 in 10.0 mi West 10.4 mph - N/A   Scattered Clouds
10:53 AM 46.9 °F - 35.1 °F 63% 30.37 in 10.0 mi West 11.5 mph - 0.00 in   Mostly Cloudy
11:29 AM 44.1 °F 40.8 °F 36.0 °F 73% 30.38 in 5.0 mi Variable 5.8 mph - 0.01 in Rain Light Rain
11:44 AM 46.0 °F 41.4 °F 37.0 °F 71% 30.37 in 10.0 mi West 9.2 mph - 0.02 in   Scattered Clouds
11:53 AM 46.0 °F 41.9 °F 37.9 °F 73% 30.37 in 10.0 mi West 8.1 mph - 0.02 in   Scattered Clouds
12:53 PM 44.1 °F 38.1 °F 35.1 °F 71% 30.38 in 8.0 mi NNW 11.5 mph 23.0 mph 0.00 in Rain Light Rain
1:53 PM 50.0 °F - 35.1 °F 57% 30.35 in 10.0 mi West 11.5 mph - 0.00 in   Mostly Cloudy
2:53 PM 50.0 °F - 33.1 °F 52% 30.35 in 10.0 mi NW 11.5 mph 17.3 mph N/A   Scattered Clouds
3:53 PM 50.0 °F - 32.0 °F 50% 30.35 in 10.0 mi NNW 6.9 mph - N/A   Scattered Clouds
4:53 PM 50.0 °F - 32.0 °F 50% 30.36 in 10.0 mi WNW 11.5 mph - N/A   Scattered Clouds
5:53 PM 48.9 °F - 30.0 °F 48% 30.36 in 10.0 mi WNW 11.5 mph - N/A   Overcast
6:53 PM 48.0 °F - 28.9 °F 48% 30.37 in 10.0 mi NW 12.7 mph 17.3 mph N/A   Overcast
7:53 PM 46.0 °F 41.4 °F 28.9 °F 51% 30.38 in 10.0 mi WNW 9.2 mph - N/A   Overcast
8:53 PM 46.0 °F 41.4 °F 32.0 °F 58% 30.39 in 10.0 mi WNW 9.2 mph - N/A   Overcast
9:53 PM 45.0 °F 41.8 °F 34.0 °F 65% 30.40 in 10.0 mi West 5.8 mph - 0.00 in   Overcast
10:53 PM 45.0 °F 43.5 °F 34.0 °F 65% 30.40 in 10.0 mi West 3.5 mph - N/A   Overcast
11:53 PM 44.1 °F - 35.1 °F 71% 30.39 in 10.0 mi Calm Calm - 0.00 in Rain Light Rain